Regional Weather Roundup
Issued by NWS Jackson, KY

Home | Current Version | Previous Version | Text Only | Print | Product List | Glossary Off
Versions: 1 2 3 4 5 6 7 8 9 10 11 12 13 14 15 16 17 18 19 20 21 22 23 24 25 26 27 28

000
ASUS43 KJKL 282210
RWRJKL

EAST KENTUCKY HOURLY WEATHER ROUNDUP
NATIONAL WEATHER SERVICE JACKSON KY
600 PM EDT TUE MAR 28 2017

NOTE: "FAIR" INDICATES FEW OR NO CLOUDS BELOW 12,000 FEET WITH
NO SIGNIFICANT WEATHER AND/OR OBSTRUCTIONS TO VISIBILITY.

* THESE REPORTS ARE NOT UNDER NWS QUALITY CONTROL AND MAY NOT
  REPORT WEATHER SUCH AS PRECIPITATION AND FOG.

KYZ079-080-083-085-087-088-110-112-115-119-120-282300
...EASTERN KENTUCKY...

CITY           SKY/WX    TMP DP  RH WIND       PRES   REMARKS
JACKSON        CLOUDY    62  51  67 NW5       30.01R
LONDON         CLOUDY    63  50  62 W8        30.01R
SOMERSET*      CLOUDY    61  50  67 W3        30.03R
MONTICELLO*    CLOUDY    63  53  70 NW8       30.03S
WILLIAMSBURG*  PTCLDY    64  50  59 NW5       30.01S
MIDDLESBORO*   CLOUDY    66  52  60 NW7       30.00R
HARLAN APT*    CLOUDY    63  50  63 SW6       30.01R
PIKE CO APT*   CLOUDY    61  56  82 SW3       30.00R
BIG SANDY APT* CLOUDY    63  54  71 W6        30.00R
MOREHEAD APT*  CLOUDY    61  54  77 NW7       30.03R
ASHLAND*       CLOUDY    61  57  88 W5        29.97R
$$

KYZ035-036-041-042-044-050-067-078-099-282300
...CENTRAL KENTUCKY...

CITY           SKY/WX    TMP DP  RH WIND       PRES   REMARKS
MT STERLING*   CLOUDY    61  54  77 NW7       30.03R
FLEMING/MASON* CLOUDY    58  53  84 N9        30.04R
DANVILLE*      CLOUDY    59  54  82 NW7       30.03S
LEXINGTON      CLOUDY    61  53  75 NW7       30.02S
FRANKFORT        N/A     62  52  69 N6        30.02R
LOUISVILLE     MOSUNNY   67  48  50 N10       30.03R
LEBANON*       CLOUDY    61  55  82 NW3       30.03R
GLASGOW*       CLOUDY    62  54  74 CALM      30.02S
BOWLING GREEN  CLOUDY    63  55  75 N6        30.03S
$$

KYZ091>093-OHZ055-061-077-WVZ005-015-034-035-042-282300
...SOUTHERN OHIO/WEST VIRGINIA...

CITY           SKY/WX    TMP DP  RH WIND       PRES   REMARKS
COVINGTON      CLOUDY    57  50  77 N9        30.04R
COLUMBUS       PTSUNNY   56  47  71 N12       30.03R
DAYTON         CLOUDY    53  47  79 N8        30.06R
WILMINGTON     CLOUDY    54  49  83 N9        30.03S
HUNTINGTON     CLOUDY    64  54  69 VRB3      29.97R
CHARLESTON     CLOUDY    65  52  62 W7        29.95R
PINEVILLE*     CLOUDY    62  52  69 MISG      30.03S
BECKLEY        CLOUDY    56  52  86 N6        29.98R
BLUEFIELD      CLOUDY    55  49  80 NW8       30.00R
LOGAN CO APT*  CLOUDY    61  54  77 CALM      29.99R
$$

VAZ002-007-008-TNZ017-027-036-066-071-282300
...SOUTHWEST VIRGINIA/EAST TENNESSEE...

CITY           SKY/WX    TMP DP  RH WIND       PRES   REMARKS
WISE*          CLOUDY    59  46  63 NW6       30.03R
JONESVILLE*    CLOUDY    66  50  55 NW5       30.01S
ABINGDON*      CLOUDY    64  51  62 NW8       30.00R
BRISTOL        CLOUDY    67  49  52 NW9       29.98R
MORRISTOWN*    MOCLDY    70  52  52 VRB7      29.97R
SEVIERVILLE*   PTCLDY    72  54  53 W8        29.96S
KNOXVILLE      MOSUNNY   73  50  44 W13       29.96S
LAFOLLETTE*    MOCLDY    70  52  52 VRB3      30.01R
OAK RIDGE      CLOUDY    75  49  39 VRB6      29.97S
CROSSVILLE     CLOUDY    62  49  62 W9        30.02F
NASHVILLE      PTSUNNY   70  52  52 N8        30.00S
$$

...KEY TO REMARKS...
VSB - VISIBILITY IN MILES
WCI - WIND CHILL INDEX
HX  - HEAT INDEX

$$




USA.gov is the U.S. government's official web portal to all federal, state and local government web resources and services.